This demonstration page uses our WeatherBlox Daily Observations layout. Learn more.

Left ArrowRight Arrow

Hourly Observations for September 2, 2020

Temp ( °F °C ) Dew Point ( °F °C ) Humidity (%) Winds ( mph kmh ) Pressure ( in mb ) Visibility ( mi km ) Precip ( " mm )
12:52 am 00:52 Clear 64 17.8 62 16.7 93 93 SSE 9 15 29.83 1010 10 16 0.00 0.00
1:52 am 01:52 Clear 63 17.2 61 16.1 93 93 SSE 8 13 29.82 1010 10 16 0.00 0.00
2:52 am 02:52 Partly Cloudy 64 17.8 62 16.7 93 93 SE 5 7 29.84 1010 10 16 0.00 0.00
3:52 am 03:52 Clear 63 17.2 62 16.7 97 97 SSE 7 11 29.84 1011 10 16 0.00 0.00
4:52 am 04:52 Clear 63 17.2 61 16.1 93 93 SSE 6 9 29.84 1010 10 16 0.00 0.00
5:52 am 05:52 Clear with Mist and Fog 62 16.7 61 16.1 96 96 SSE 3 6 29.84 1011 6 10 0.00 0.00
6:52 am 06:52 Partly Cloudy with Patchy Fog 61 16.1 60 15.6 97 97 SE 6 9 29.86 1011 7 11 0.00 0.00
7:52 am 07:52 Partly Cloudy with Mist and Fog 63 17.2 62 16.7 97 97 Calm 29.88 1012 5 8 0.00 0.00
8:52 am 08:52 Sunny with Mist and Fog 67 19.4 63 17.2 87 87 Calm 29.89 1012 6 10 0.00 0.00
9:52 am 09:52 Sunny 73 22.8 64 17.8 74 74 NNW 5 7 29.90 1013 7 11 0.00 0.00
10:52 am 10:52 Sunny 79 26.1 62 16.7 56 56 Calm 29.92 1013 10 16 0.00 0.00
11:52 am 11:52 Sunny 84 28.9 57 13.9 40 40 NNE 5 7 29.90 1013 10 16 0.00 0.00
12:52 pm 12:52 Mostly Sunny 88 31.1 48 8.9 25 25 Calm 29.88 1012 10 16 0.00 0.00
1:52 pm 13:52 Mostly Sunny 89 31.7 46 7.8 23 23 SSW 5 7 29.86 1011 10 16 0.00 0.00
2:52 pm 14:52 Mostly Sunny 89 31.7 42 5.6 19 19 S 7 11 29.85 1011 10 16 0.00 0.00
3:52 pm 15:52 Mostly Sunny 89 31.7 40 4.4 18 18 VRB 3 6 29.83 1010 10 16 0.00 0.00
4:52 pm 16:52 Mostly Sunny 90 32.2 42 5.6 19 19 SSE 9 15 29.81 1010 10 16 0.00 0.00
5:52 pm 17:52 Mostly Sunny 89 31.7 41 5 19 19 S 12 19 29.80 1009 10 16 0.00 0.00
6:52 pm 18:52 Mostly Sunny 88 31.1 44 6.7 22 22 S 12 19 29.79 1009 10 16 0.00 0.00
7:52 pm 19:52 Mostly Sunny 84 28.9 47 8.3 27 27 S 9 15 29.78 1008 10 16 0.00 0.00
8:52 pm 20:52 Mostly Clear 76 24.4 52 11.1 43 43 SSE 6 9 29.79 1009 10 16 0.00 0.00
9:52 pm 21:52 Clear 73 22.8 56 13.3 55 55 SSE 8 13 29.80 1009 10 16 0.00 0.00
10:52 pm 22:52 Clear 75 23.9 60 15.6 60 60 SSE 13 20 29.78 1009 10 16 0.00 0.00
11:52 pm 23:52 Clear 74 23.3 64 17.8 71 71 SSE 12 19 29.77 1008 10 16 0.00 0.00

Powered by AerisWeather